DateTimeUTC,F1_A11,F1_S11,BsB_S11,BsG_S11,BsR_S11,BbsB_S11,BbsG_S11,BbsR_S11,BaB_A11,BaG_A11,BaR_A11,Tu_S11,T_S11,Uu_S11,U_S11,P_S11,T1_A11
2021-11-30T19:00:00Z,00000200,21000000,,,,,,,0000.20,0000.07,-000.25,19.0,25.9,,00.0,0638.2,30.9
2021-11-30T19:01:00Z,00000200,21000000,,,,,,,0000.16,0000.05,-000.03,19.0,25.9,,00.0,0638.2,30.8
2021-11-30T19:02:00Z,00000200,21000000,,,,,,,-000.50,0000.16,0000.00,19.0,25.9,,00.0,0638.2,30.8
2021-11-30T19:03:00Z,00000200,61000000,,,,,,,-000.07,-000.38,-000.32,19.0,25.9,,00.0,0638.2,30.9
2021-11-30T19:04:00Z,00000200,41000000,-000.65,-000.15,0000.29,-000.55,-000.40,0000.17,0000.30,0000.25,0000.29,19.2,25.7,,00.0,0639.1,30.9
2021-11-30T19:05:00Z,00000200,01000000,0000.75,-000.17,0000.25,-000.68,0000.15,0000.08,0000.11,-000.14,0000.07,19.3,25.7,,00.0,0639.2,30.9
2021-11-30T19:06:00Z,00000200,01000000,0000.08,-000.02,0000.34,-000.48,-000.14,0000.05,-000.26,-000.04,-000.09,19.4,25.7,,00.0,0639.3,30.9
2021-11-30T19:07:00Z,00000200,01000000,0000.56,-000.24,-000.21,0000.02,0000.38,0000.21,0000.02,0000.08,-000.08,19.4,25.7,,00.0,0639.3,30.9
2021-11-30T19:08:00Z,00000200,01000000,0000.54,-000.03,0000.36,-000.21,0000.29,0000.56,-000.08,-000.15,-000.11,19.5,25.7,,00.0,0639.4,30.9
2021-11-30T19:09:00Z,00000200,01000000,0000.16,0000.04,0000.24,-000.02,0000.35,0000.43,0000.08,0000.06,0000.13,19.5,25.8,,00.0,0639.4,30.9
2021-11-30T19:10:00Z,00000200,01000000,-000.09,-000.14,0000.18,0000.10,-000.18,0000.13,-000.01,-000.11,-000.35,19.6,25.8,,00.0,0639.4,30.9
2021-11-30T19:11:00Z,00000200,01000000,0000.89,0000.06,0000.15,-000.09,0000.18,0000.14,-000.04,-000.10,-000.04,19.6,25.8,,00.0,0639.4,30.9
2021-11-30T19:12:00Z,00000200,01000000,-000.03,0000.04,-000.19,0000.46,0000.24,-000.21,-000.37,0000.03,0000.24,19.5,25.8,,00.0,0639.5,30.9
2021-11-30T19:13:00Z,00000200,01000000,0001.29,0000.12,-000.21,0000.38,-000.18,0000.36,0000.24,0000.05,-000.22,19.4,25.8,,00.0,0639.5,30.9
2021-11-30T19:14:00Z,00000200,01000000,0000.52,0000.17,-000.20,0000.30,-000.07,-000.10,0000.04,0000.10,0000.04,19.4,25.8,,00.0,0639.6,30.9
2021-11-30T19:15:00Z,00000200,01010000,0000.69,0000.33,0000.07,-000.58,0000.08,0000.59,0000.08,-000.07,0000.15,19.3,25.7,,00.0,0639.6,30.9
2021-11-30T19:16:00Z,00000200,01000000,0000.86,-000.03,-000.09,0000.36,0000.56,0000.20,0000.20,-000.39,0000.10,19.3,25.7,,00.0,0639.7,30.9
2021-11-30T19:17:00Z,00000200,01000000,0000.12,0000.19,0000.13,-000.73,0000.28,0000.10,-000.01,0000.47,-000.15,19.3,25.7,,00.0,0639.7,30.9
2021-11-30T19:18:00Z,00000200,01000000,0000.24,0000.12,0000.14,-000.70,0000.11,0000.06,0000.25,0000.01,0000.01,19.3,25.7,,00.0,0639.8,30.9
2021-11-30T19:19:00Z,00000200,01000000,0000.66,0000.03,0000.34,-000.65,0000.39,0000.58,-000.01,-000.09,0000.04,19.4,25.7,,00.0,0639.8,30.9
2021-11-30T19:20:00Z,00000200,01000000,0000.62,0000.33,-000.32,-000.55,0000.11,0000.16,0000.03,0000.07,-000.00,19.4,25.8,,00.0,0639.9,30.9
2021-11-30T19:21:00Z,00000200,01000000,0000.45,0000.17,0000.40,0000.52,0000.38,0000.55,0000.04,0000.30,0000.22,19.5,25.8,,00.0,0639.9,30.9
2021-11-30T19:22:00Z,00000200,01000000,0000.60,0000.18,0000.53,0000.44,-000.02,0000.35,-000.23,-000.20,-000.18,19.5,25.8,,00.0,0640.0,30.9
2021-11-30T19:23:00Z,00000200,01000000,0000.07,0000.23,0000.27,0000.16,-000.08,0000.41,-000.07,-000.18,0000.08,19.5,25.8,,00.0,0640.0,30.9
2021-11-30T19:24:00Z,00000200,01000000,0000.51,0000.29,-000.05,-000.29,0000.39,0000.08,0000.01,-000.05,-000.52,19.5,25.8,,00.0,0640.0,30.9
2021-11-30T19:25:00Z,00000200,01000000,0000.48,0000.11,0000.24,-000.04,0000.10,0000.45,0000.19,0000.19,0000.28,19.4,25.8,,00.0,0640.0,30.9
2021-11-30T19:26:00Z,00000200,01000000,0000.62,0000.08,0000.24,0000.05,-000.08,0000.40,-000.07,0000.21,-000.11,19.4,25.8,,00.0,0640.0,30.9
2021-11-30T19:27:00Z,00000200,01000000,0000.52,0000.08,0000.17,-000.54,0000.39,0000.39,-000.09,-000.33,-000.01,19.3,25.7,,00.0,0640.0,30.9
2021-11-30T19:28:00Z,00000200,01000000,0000.50,0000.12,-000.17,0000.42,0000.45,0000.17,-000.01,0000.20,0000.04,19.2,25.7,,00.0,0640.0,30.8
2021-11-30T19:29:00Z,00000200,01000000,0000.64,0000.18,0000.29,0000.21,0000.23,0000.31,0000.34,-000.33,-000.04,19.1,25.7,,00.0,0640.0,30.8
2021-11-30T19:30:00Z,00000200,01000000,-000.12,0000.14,0000.23,0000.28,0000.11,0000.34,0000.15,0000.54,0000.13,19.1,25.6,,00.0,0640.0,30.8
2021-11-30T19:31:00Z,00000200,01000000,0000.55,0000.43,-000.04,-000.28,0000.29,0000.24,0000.15,0000.33,0000.09,19.1,25.6,,00.0,0640.0,30.8
2021-11-30T19:32:00Z,00000200,01000000,0000.46,0000.08,-000.02,-000.41,0000.20,0000.17,-000.08,0000.03,0000.50,19.1,25.6,,00.0,0640.0,30.8
2021-11-30T19:33:00Z,00000200,01000000,-000.09,0000.09,-000.18,-000.53,0000.19,0000.08,0000.31,0000.14,-000.23,19.1,25.6,,00.0,0640.1,30.8
2021-11-30T19:34:00Z,00000200,01000000,0000.82,-000.02,0000.51,0000.08,-000.06,0000.72,0000.31,-000.02,0000.19,19.2,25.6,,00.0,0640.1,30.8
2021-11-30T19:35:00Z,00000200,01000000,0000.40,0000.36,0000.27,0000.41,-000.12,0000.70,-000.20,0000.10,0000.12,19.2,25.6,,00.0,0640.1,30.8
2021-11-30T19:36:00Z,00000200,01000000,0000.63,0000.20,-000.35,-000.31,0000.28,0000.12,0000.23,0000.23,0000.05,19.3,25.6,,00.0,0640.1,30.9
2021-11-30T19:37:00Z,00000200,01000000,0000.74,0000.29,0000.35,-000.29,0000.13,0000.31,0000.30,0000.11,0000.29,19.3,25.6,,00.0,0640.1,30.9
2021-11-30T19:38:00Z,00000200,01000000,0000.57,0000.13,-000.14,-000.24,0000.32,-000.00,-000.06,0000.24,-000.05,19.4,25.7,,00.0,0640.1,30.9
2021-11-30T19:39:00Z,00000200,01000000,0000.46,0000.12,0000.00,-000.17,0000.24,0000.35,0000.04,0000.12,0000.19,19.4,25.7,,00.0,0640.1,30.9
2021-11-30T19:40:00Z,00000200,01000000,0000.54,-000.25,0000.03,0000.22,0000.49,0000.30,0000.38,-000.07,-000.11,19.5,25.7,,00.0,0640.2,30.9
2021-11-30T19:41:00Z,00000200,01000000,0000.63,0000.13,0000.04,0000.51,0000.02,0000.21,-000.14,-000.13,0000.18,19.5,25.7,,00.0,0640.2,30.9
2021-11-30T19:42:00Z,00000200,01000000,0000.14,-000.26,0000.25,0000.08,0000.33,0000.08,0000.19,0000.23,0000.02,19.6,25.7,,00.0,0640.2,30.9
2021-11-30T19:43:00Z,00000200,01000000,0000.80,-000.09,0000.20,0000.22,0000.23,0000.15,-000.30,-000.24,-000.20,19.5,25.8,,00.0,0640.1,30.9
2021-11-30T19:44:00Z,00000200,01000000,0000.45,0000.24,0000.48,-000.52,0000.23,0000.39,0000.16,0000.16,0000.30,19.5,25.8,,00.0,0640.1,30.9
2021-11-30T19:45:00Z,00000200,01000000,0000.45,-000.08,-000.42,-000.01,0000.11,0000.08,0000.27,0000.18,-000.18,19.4,25.8,,00.0,0640.1,30.9
2021-11-30T19:46:00Z,00000200,01000000,0000.79,0000.27,0000.16,-000.38,0000.38,0000.41,0000.25,0000.39,0000.34,19.4,25.7,,00.0,0640.1,30.9
2021-11-30T19:47:00Z,00000200,01000000,0000.37,0000.08,0000.21,-000.60,-000.06,0000.29,0000.13,0000.10,0000.08,19.4,25.7,,00.0,0640.1,30.9
2021-11-30T19:48:00Z,00000200,01000000,0000.51,0000.14,0000.32,0000.03,0000.34,0000.36,-000.22,0000.15,-000.19,19.4,25.7,,00.0,0640.2,30.9
2021-11-30T19:49:00Z,00000200,01000000,0000.03,0000.17,-000.11,-000.11,0000.08,-000.05,0000.34,-000.03,0000.23,19.4,25.7,,00.0,0640.2,30.9
2021-11-30T19:50:00Z,00000200,01000000,-000.02,0000.08,0000.31,0000.00,0000.21,0000.19,0000.05,0000.25,0000.24,19.5,25.8,,00.0,0640.2,30.9
2021-11-30T19:51:00Z,00000200,01000000,0000.30,-000.21,0000.15,-000.18,0000.05,0000.16,0000.12,0000.07,0000.25,19.5,25.8,,00.0,0640.2,30.9
2021-11-30T19:52:00Z,00000200,01000000,-000.11,-000.27,0000.23,0000.17,-000.06,-000.05,-000.01,-000.16,-000.32,19.6,25.8,,00.0,0640.2,30.9
2021-11-30T19:53:00Z,00000200,01000000,0000.97,0000.14,0000.09,-000.10,0000.07,0000.44,-000.06,0000.00,0000.27,19.6,25.8,,00.0,0640.2,30.9
2021-11-30T19:54:00Z,00000200,01000000,0000.60,0000.42,-000.16,0000.02,0000.01,0000.25,-000.12,-000.03,-000.15,19.6,25.9,,00.0,0640.1,30.9
2021-11-30T19:55:00Z,00000200,01000000,0000.42,0000.41,0000.30,-000.59,0000.17,0000.32,0000.19,-000.20,-000.09,19.5,25.9,,00.0,0640.1,30.9
2021-11-30T19:56:00Z,00000200,01000000,0000.92,0000.04,0000.21,0000.34,-000.00,0000.07,0000.01,-000.03,0000.11,19.4,25.8,,00.0,0640.1,30.9
2021-11-30T19:57:00Z,00000200,41000000,,,,,,,0000.18,0000.49,0000.36,19.4,25.9,,00.0,0640.2,30.9
2021-11-30T19:58:00Z,00000200,61000000,,,,,,,-000.14,-000.18,-000.27,19.0,25.9,,00.0,0639.2,30.9
2021-11-30T19:59:00Z,00000200,21000000,,,,,,,-000.25,0000.12,-000.24,19.0,26.0,,00.0,0639.2,30.8
